Time,TemperatureF,DewpointF,PressureIn,WindDirection,WindDirectionDegrees,WindSpeedMPH,WindSpeedGustMPH,Humidity,HourlyPrecipIn,Conditions,Clouds,dailyrainin,SoftwareType,DateUTC
2013-11-22 00:00:00,65.2,64.3,30.22,NNE,15,0.0,6.0,97,0.00,,,0.00,Weather View 32 v70,2013-11-22 05:00:00,
2013-11-22 00:10:00,65.2,64.3,30.22,North,360,0.0,6.0,97,0.00,,,0.00,Weather View 32 v70,2013-11-22 05:10:00,
2013-11-22 00:18:00,65.2,64.3,30.22,North,360,0.0,6.0,97,0.00,,,0.00,Weather View 32 v70,2013-11-22 05:18:00,
2013-11-22 00:20:00,65.1,64.2,30.22,North,11,0.0,6.0,97,0.00,,,0.00,Weather View 32 v70,2013-11-22 05:20:00,
2013-11-22 00:30:00,65.0,64.1,30.22,North,5,0.0,6.0,97,0.00,,,0.00,Weather View 32 v70,2013-11-22 05:30:00,
2013-11-22 00:40:00,65.0,64.1,30.21,NNE,17,1.0,6.0,97,0.00,,,0.00,Weather View 32 v70,2013-11-22 05:40:00,
2013-11-22 00:50:00,64.9,64.0,30.22,NNE,28,0.0,6.0,97,0.00,,,0.00,Weather View 32 v70,2013-11-22 05:50:00,
2013-11-22 01:00:00,64.9,64.0,30.21,NNW,327,0.0,6.0,97,0.00,,,0.00,Weather View 32 v70,2013-11-22 06:00:00,
2013-11-22 01:10:00,64.8,63.9,30.21,North,10,0.0,6.0,97,0.00,,,0.00,Weather View 32 v70,2013-11-22 06:10:00,
2013-11-22 01:18:00,64.8,63.9,30.21,North,10,0.0,6.0,97,0.00,,,0.00,Weather View 32 v70,2013-11-22 06:18:00,
2013-11-22 01:20:00,64.8,63.9,30.21,North,11,0.0,6.0,97,0.00,,,0.00,Weather View 32 v70,2013-11-22 06:20:00,
2013-11-22 01:30:00,64.7,63.8,30.21,North,355,0.0,6.0,97,0.00,,,0.00,Weather View 32 v70,2013-11-22 06:30:00,
2013-11-22 01:40:00,64.7,63.8,30.21,NNW,342,0.0,6.0,97,0.00,,,0.00,Weather View 32 v70,2013-11-22 06:40:00,
2013-11-22 01:50:00,64.7,63.8,30.21,NW,310,0.0,4.0,97,0.00,,,0.00,Weather View 32 v70,2013-11-22 06:50:00,
2013-11-22 02:00:00,64.6,64.0,30.20,NNE,20,0.0,4.0,98,0.00,,,0.00,Weather View 32 v70,2013-11-22 07:00:00,
2013-11-22 02:10:00,64.6,64.0,30.20,North,5,0.0,3.0,98,0.00,,,0.00,Weather View 32 v70,2013-11-22 07:10:00,
2013-11-22 02:19:00,64.6,64.0,30.20,North,5,0.0,3.0,98,0.00,,,0.00,Weather View 32 v70,2013-11-22 07:19:00,
2013-11-22 02:20:00,64.6,63.7,30.20,North,5,1.0,5.0,97,0.00,,,0.00,Weather View 32 v70,2013-11-22 07:20:00,
2013-11-22 02:30:00,64.5,63.6,30.20,North,5,0.0,5.0,97,0.00,,,0.00,Weather View 32 v70,2013-11-22 07:30:00,
2013-11-22 02:40:00,64.5,63.9,30.20,NNW,341,0.0,5.0,98,0.00,,,0.00,Weather View 32 v70,2013-11-22 07:40:00,
2013-11-22 02:50:00,64.5,63.9,30.20,NNW,333,0.0,5.0,98,0.00,,,0.00,Weather View 32 v70,2013-11-22 07:50:00,
2013-11-22 03:00:00,64.5,63.9,30.20,West,277,0.0,5.0,98,0.00,,,0.00,Weather View 32 v70,2013-11-22 08:00:00,
2013-11-22 03:10:00,64.5,63.9,30.20,NNE,22,0.0,5.0,98,0.00,,,0.00,Weather View 32 v70,2013-11-22 08:10:00,
2013-11-22 03:19:00,64.5,63.9,30.20,NNE,22,0.0,5.0,98,0.00,,,0.00,Weather View 32 v70,2013-11-22 08:19:00,
2013-11-22 03:20:00,64.5,63.9,30.20,WNW,290,0.0,5.0,98,0.00,,,0.00,Weather View 32 v70,2013-11-22 08:20:00,
2013-11-22 03:30:00,64.5,63.9,30.19,NNW,342,0.0,4.0,98,0.00,,,0.00,Weather View 32 v70,2013-11-22 08:30:00,
2013-11-22 03:40:00,64.5,63.9,30.20,NNW,327,0.0,3.0,98,0.00,,,0.00,Weather View 32 v70,2013-11-22 08:40:00,
2013-11-22 03:50:00,64.5,63.9,30.19,NNW,334,0.0,3.0,98,0.00,,,0.00,Weather View 32 v70,2013-11-22 08:50:00,
2013-11-22 04:00:00,64.5,63.9,30.19,NNW,328,0.0,2.0,98,0.00,,,0.00,Weather View 32 v70,2013-11-22 09:00:00,
2013-11-22 04:10:00,64.5,63.9,30.19,NNW,333,0.0,2.0,98,0.00,,,0.00,Weather View 32 v70,2013-11-22 09:10:00,
2013-11-22 04:20:00,64.6,64.0,30.19,NNE,17,2.0,2.0,98,0.00,,,0.00,Weather View 32 v70,2013-11-22 09:20:00,
2013-11-22 04:30:00,64.7,64.1,30.19,NNE,17,0.0,2.0,98,0.00,,,0.00,Weather View 32 v70,2013-11-22 09:30:00,
2013-11-22 04:40:00,64.8,64.2,30.19,NNE,31,0.0,3.0,98,0.00,,,0.00,Weather View 32 v70,2013-11-22 09:40:00,
2013-11-22 04:50:00,64.8,64.2,30.19,NNE,30,0.0,3.0,98,0.00,,,0.00,Weather View 32 v70,2013-11-22 09:50:00,
2013-11-22 05:00:00,64.9,64.3,30.19,NNW,343,0.0,3.0,98,0.00,,,0.00,Weather View 32 v70,2013-11-22 10:00:00,
2013-11-22 05:10:00,65.0,64.4,30.20,East,94,0.0,3.0,98,0.00,,,0.00,Weather View 32 v70,2013-11-22 10:10:00,
2013-11-22 05:20:00,65.1,64.5,30.20,East,94,0.0,3.0,98,0.00,,,0.00,Weather View 32 v70,2013-11-22 10:20:00,
2013-11-22 05:30:00,65.1,64.5,30.20,ESE,103,0.0,3.0,98,0.00,,,0.00,Weather View 32 v70,2013-11-22 10:30:00,
2013-11-22 05:40:00,65.2,64.6,30.20,SW,236,0.0,3.0,98,0.00,,,0.00,Weather View 32 v70,2013-11-22 10:40:00,
2013-11-22 05:50:00,65.3,64.7,30.20,SW,236,0.0,3.0,98,0.00,,,0.00,Weather View 32 v70,2013-11-22 10:50:00,
2013-11-22 06:00:00,65.3,64.7,30.20,SW,236,0.0,3.0,98,0.00,,,0.00,Weather View 32 v70,2013-11-22 11:00:00,
2013-11-22 06:10:00,65.5,64.9,30.20,SW,236,0.0,3.0,98,0.00,,,0.00,Weather View 32 v70,2013-11-22 11:10:00,
2013-11-22 06:20:00,65.6,65.0,30.21,South,177,0.0,5.0,98,0.00,,,0.00,Weather View 32 v70,2013-11-22 11:20:00,
2013-11-22 06:21:00,65.6,65.0,30.21,South,177,0.0,5.0,98,0.00,,,0.00,Weather View 32 v70,2013-11-22 11:21:00,
2013-11-22 06:30:00,65.6,65.0,30.21,South,187,0.0,5.0,98,0.00,,,0.00,Weather View 32 v70,2013-11-22 11:30:00,
2013-11-22 06:40:00,65.7,65.1,30.21,South,187,0.0,5.0,98,0.00,,,0.00,Weather View 32 v70,2013-11-22 11:40:00,
2013-11-22 06:50:00,65.6,65.0,30.21,South,187,0.0,5.0,98,0.00,,,0.00,Weather View 32 v70,2013-11-22 11:50:00,
2013-11-22 07:00:00,65.7,65.1,30.21,South,187,0.0,5.0,98,0.00,,,0.00,Weather View 32 v70,2013-11-22 12:00:00,
2013-11-22 07:10:00,65.8,65.2,30.21,South,187,0.0,5.0,98,0.00,,,0.00,Weather View 32 v70,2013-11-22 12:10:00,
2013-11-22 07:20:00,66.0,65.4,30.21,South,187,0.0,2.0,98,0.00,,,0.00,Weather View 32 v70,2013-11-22 12:20:00,
2013-11-22 07:21:00,66.0,65.4,30.21,South,187,0.0,2.0,98,0.00,,,0.00,Weather View 32 v70,2013-11-22 12:21:00,
2013-11-22 07:30:00,66.1,65.5,30.21,ENE,59,0.0,2.0,98,0.00,,,0.00,Weather View 32 v70,2013-11-22 12:30:00,
2013-11-22 07:40:00,66.3,65.7,30.22,North,11,2.0,5.0,98,0.00,,,0.00,Weather View 32 v70,2013-11-22 12:40:00,
2013-11-22 07:50:00,66.5,65.9,30.21,NNE,19,0.0,5.0,98,0.00,,,0.00,Weather View 32 v70,2013-11-22 12:50:00,
2013-11-22 08:00:00,66.6,66.0,30.22,NNE,20,1.0,5.0,98,0.00,,,0.00,Weather View 32 v70,2013-11-22 13:00:00,
2013-11-22 08:10:00,66.8,66.2,30.22,NE,37,1.0,5.0,98,0.00,,,0.00,Weather View 32 v70,2013-11-22 13:10:00,
2013-11-22 08:20:00,67.0,66.4,30.22,NNE,21,0.0,5.0,98,0.00,,,0.00,Weather View 32 v70,2013-11-22 13:20:00,
2013-11-22 08:22:00,67.0,66.4,30.22,NNE,21,0.0,5.0,98,0.00,,,0.00,Weather View 32 v70,2013-11-22 13:22:00,
2013-11-22 08:31:00,67.4,66.8,30.22,NNW,334,0.0,5.0,98,0.00,,,0.00,Weather View 32 v70,2013-11-22 13:31:00,
2013-11-22 08:40:00,67.5,66.9,30.23,NNE,17,0.0,5.0,98,0.00,,,0.00,Weather View 32 v70,2013-11-22 13:40:00,
2013-11-22 08:50:00,67.8,67.2,30.23,NNE,17,0.0,5.0,98,0.00,,,0.00,Weather View 32 v70,2013-11-22 13:50:00,
2013-11-22 09:00:00,67.8,67.2,30.23,NE,52,1.0,6.0,98,0.00,,,0.00,Weather View 32 v70,2013-11-22 14:00:00,
2013-11-22 09:10:00,68.0,67.1,30.24,NNE,31,3.0,7.0,97,0.00,,,0.00,Weather View 32 v70,2013-11-22 14:10:00,
2013-11-22 09:20:00,68.3,67.1,30.23,NNE,26,2.0,7.0,96,0.00,,,0.00,Weather View 32 v70,2013-11-22 14:20:00,
2013-11-22 09:30:00,68.7,67.5,30.23,NNE,24,4.0,8.0,96,0.00,,,0.00,Weather View 32 v70,2013-11-22 14:30:00,
2013-11-22 09:40:00,69.3,67.8,30.24,NNE,20,1.0,8.0,95,0.00,,,0.00,Weather View 32 v70,2013-11-22 14:40:00,
2013-11-22 09:50:00,70.2,68.4,30.24,NE,34,4.0,9.0,94,0.00,,,0.00,Weather View 32 v70,2013-11-22 14:50:00,
2013-11-22 10:00:00,70.6,68.2,30.24,NE,52,2.0,9.0,92,0.00,,,0.00,Weather View 32 v70,2013-11-22 15:00:00,
2013-11-22 10:10:00,71.3,68.5,30.24,North,5,3.0,9.0,91,0.00,,,0.00,Weather View 32 v70,2013-11-22 15:10:00,
2013-11-22 10:20:00,72.0,68.6,30.23,NE,40,4.0,9.0,89,0.00,,,0.00,Weather View 32 v70,2013-11-22 15:20:00,
2013-11-22 10:24:00,72.0,68.6,30.23,NE,40,4.0,9.0,89,0.00,,,0.00,Weather View 32 v70,2013-11-22 15:24:00,
2013-11-22 10:30:00,72.4,68.6,30.23,ENE,65,3.0,9.0,88,0.00,,,0.00,Weather View 32 v70,2013-11-22 15:30:00,
2013-11-22 10:40:00,72.9,68.8,30.23,NE,48,5.0,11.0,87,0.00,,,0.00,Weather View 32 v70,2013-11-22 15:40:00,
2013-11-22 10:50:00,73.6,69.1,30.23,NE,46,6.0,11.0,86,0.00,,,0.00,Weather View 32 v70,2013-11-22 15:50:00,
2013-11-22 11:00:00,73.6,68.8,30.23,NE,51,9.0,11.0,85,0.00,,,0.00,Weather View 32 v70,2013-11-22 16:00:00,
2013-11-22 11:10:00,74.2,69.4,30.22,NE,51,5.0,11.0,85,0.00,,,0.00,Weather View 32 v70,2013-11-22 16:10:00,
2013-11-22 11:20:00,74.6,69.4,30.22,North,5,5.0,11.0,84,0.00,,,0.00,Weather View 32 v70,2013-11-22 16:20:00,
2013-11-22 11:25:00,74.6,69.4,30.22,North,5,5.0,11.0,84,0.00,,,0.00,Weather View 32 v70,2013-11-22 16:25:00,
2013-11-22 11:40:00,75.2,69.3,30.21,ENE,59,9.0,11.0,82,0.01,,,0.01,Weather View 32 v70,2013-11-22 16:40:00,
2013-11-22 11:50:00,75.3,69.0,30.21,ENE,72,4.0,11.0,81,0.01,,,0.01,Weather View 32 v70,2013-11-22 16:50:00,
2013-11-22 12:00:00,76.2,69.9,30.20,NE,53,4.0,11.0,81,0.01,,,0.01,Weather View 32 v70,2013-11-22 17:00:00,
2013-11-22 12:10:00,76.6,69.6,30.19,NE,36,6.0,11.0,79,0.01,,,0.01,Weather View 32 v70,2013-11-22 17:10:00,
2013-11-22 12:20:00,76.5,69.1,30.19,ESE,109,4.0,12.0,78,0.01,,,0.01,Weather View 32 v70,2013-11-22 17:20:00,
2013-11-22 12:25:00,76.5,69.1,30.19,ESE,109,4.0,12.0,78,0.01,,,0.01,Weather View 32 v70,2013-11-22 17:25:00,
2013-11-22 12:30:00,76.5,69.5,30.18,NE,44,8.0,16.0,79,0.01,,,0.01,Weather View 32 v70,2013-11-22 17:30:00,
2013-11-22 12:40:00,75.8,69.5,30.18,ENE,59,9.0,16.0,81,0.00,,,0.01,Weather View 32 v70,2013-11-22 17:40:00,
2013-11-22 12:50:00,74.6,69.1,30.18,NE,42,5.0,16.0,83,0.00,,,0.01,Weather View 32 v70,2013-11-22 17:50:00,
2013-11-22 13:00:00,73.5,69.0,30.18,ENE,73,7.0,16.0,86,0.01,,,0.02,Weather View 32 v70,2013-11-22 18:00:00,
2013-11-22 13:10:00,74.0,69.9,30.17,ENE,57,2.0,16.0,87,0.01,,,0.02,Weather View 32 v70,2013-11-22 18:10:00,
2013-11-22 13:20:00,74.9,69.4,30.16,ENE,61,8.0,16.0,83,0.01,,,0.02,Weather View 32 v70,2013-11-22 18:20:00,
2013-11-22 13:26:00,74.9,69.4,30.16,ENE,61,8.0,16.0,83,0.01,,,0.02,Weather View 32 v70,2013-11-22 18:26:00,
2013-11-22 13:40:00,75.1,69.2,30.16,NE,53,5.0,14.0,82,0.01,,,0.02,Weather View 32 v70,2013-11-22 18:40:00,
2013-11-22 13:50:00,75.7,69.1,30.16,NE,48,6.0,11.0,80,0.01,,,0.02,Weather View 32 v70,2013-11-22 18:50:00,
2013-11-22 14:00:00,75.7,68.7,30.15,ENE,63,3.0,12.0,79,0.00,,,0.02,Weather View 32 v70,2013-11-22 19:00:00,
2013-11-22 14:10:00,75.3,68.3,30.15,ENE,72,5.0,12.0,79,0.00,,,0.02,Weather View 32 v70,2013-11-22 19:10:00,
2013-11-22 14:20:00,75.2,68.2,30.15,NE,49,5.0,12.0,79,0.00,,,0.02,Weather View 32 v70,2013-11-22 19:20:00,
2013-11-22 14:26:00,75.2,68.2,30.15,NE,49,5.0,12.0,79,0.00,,,0.02,Weather View 32 v70,2013-11-22 19:26:00,
2013-11-22 14:30:00,75.4,68.0,30.14,East,80,2.0,12.0,78,0.00,,,0.02,Weather View 32 v70,2013-11-22 19:30:00,
2013-11-22 14:40:00,75.4,68.0,30.14,East,89,2.0,12.0,78,0.00,,,0.02,Weather View 32 v70,2013-11-22 19:40:00,
2013-11-22 14:50:00,75.9,67.4,30.14,ENE,66,8.0,12.0,75,0.00,,,0.02,Weather View 32 v70,2013-11-22 19:50:00,
2013-11-22 15:00:00,75.8,67.7,30.14,ENE,71,2.0,11.0,76,0.00,,,0.02,Weather View 32 v70,2013-11-22 20:00:00,
2013-11-22 15:10:00,75.9,67.8,30.14,ENE,61,3.0,11.0,76,0.00,,,0.02,Weather View 32 v70,2013-11-22 20:10:00,
2013-11-22 15:20:00,75.6,67.9,30.14,NE,39,5.0,10.0,77,0.00,,,0.02,Weather View 32 v70,2013-11-22 20:20:00,
2013-11-22 15:27:00,75.6,67.9,30.14,NE,39,5.0,10.0,77,0.00,,,0.02,Weather View 32 v70,2013-11-22 20:27:00,
2013-11-22 15:30:00,75.5,67.8,30.15,NE,35,6.0,10.0,77,0.00,,,0.02,Weather View 32 v70,2013-11-22 20:30:00,
2013-11-22 15:40:00,75.3,67.9,30.14,ENE,69,4.0,10.0,78,0.00,,,0.02,Weather View 32 v70,2013-11-22 20:40:00,
2013-11-22 15:50:00,75.2,67.8,30.14,East,84,2.0,10.0,78,0.00,,,0.02,Weather View 32 v70,2013-11-22 20:50:00,
2013-11-22 16:00:00,75.1,68.1,30.14,NE,49,3.0,10.0,79,0.00,,,0.02,Weather View 32 v70,2013-11-22 21:00:00,
2013-11-22 16:10:00,75.2,67.8,30.15,NNE,33,4.0,10.0,78,0.00,,,0.02,Weather View 32 v70,2013-11-22 21:10:00,
2013-11-22 16:20:00,75.1,67.7,30.15,NE,49,2.0,7.0,78,0.00,,,0.02,Weather View 32 v70,2013-11-22 21:20:00,
2013-11-22 16:28:00,75.1,67.7,30.15,NE,49,2.0,7.0,78,0.00,,,0.02,Weather View 32 v70,2013-11-22 21:28:00,
2013-11-22 16:30:00,74.9,67.5,30.15,NE,51,2.0,7.0,78,0.00,,,0.02,Weather View 32 v70,2013-11-22 21:30:00,
2013-11-22 16:40:00,74.7,67.7,30.15,NNE,30,4.0,6.0,79,0.00,,,0.02,Weather View 32 v70,2013-11-22 21:40:00,
2013-11-22 16:50:00,74.5,67.5,30.15,NE,40,2.0,5.0,79,0.00,,,0.02,Weather View 32 v70,2013-11-22 21:50:00,
2013-11-22 17:00:00,74.1,67.5,30.15,NE,51,0.0,5.0,80,0.00,,,0.02,Weather View 32 v70,2013-11-22 22:00:00,
2013-11-22 17:10:00,73.9,67.3,30.15,NE,51,1.0,5.0,80,0.00,,,0.02,Weather View 32 v70,2013-11-22 22:10:00,
2013-11-22 17:20:00,73.6,67.4,30.15,ENE,68,2.0,5.0,81,0.00,,,0.02,Weather View 32 v70,2013-11-22 22:20:00,
2013-11-22 17:28:00,73.6,67.4,30.15,ENE,68,2.0,5.0,81,0.00,,,0.02,Weather View 32 v70,2013-11-22 22:28:00,
2013-11-22 17:30:00,73.1,67.3,30.15,ENE,57,1.0,5.0,82,0.00,,,0.02,Weather View 32 v70,2013-11-22 22:30:00,
2013-11-22 17:40:00,72.9,67.1,30.15,NE,52,0.0,4.0,82,0.00,,,0.02,Weather View 32 v70,2013-11-22 22:40:00,
2013-11-22 17:50:00,72.7,66.9,30.15,NE,50,0.0,4.0,82,0.00,,,0.02,Weather View 32 v70,2013-11-22 22:50:00,
2013-11-22 18:00:00,72.5,66.7,30.15,NE,37,0.0,4.0,82,0.00,,,0.02,Weather View 32 v70,2013-11-22 23:00:00,
2013-11-22 18:10:00,72.2,66.7,30.16,NE,54,2.0,4.0,83,0.00,,,0.02,Weather View 32 v70,2013-11-22 23:10:00,
2013-11-22 18:20:00,72.2,66.7,30.16,NE,54,0.0,4.0,83,0.00,,,0.02,Weather View 32 v70,2013-11-22 23:20:00,
2013-11-22 18:29:00,72.2,66.7,30.16,NE,54,0.0,4.0,83,0.00,,,0.02,Weather View 32 v70,2013-11-22 23:29:00,
2013-11-22 18:30:00,72.0,66.5,30.16,NE,54,0.0,4.0,83,0.00,,,0.02,Weather View 32 v70,2013-11-22 23:30:00,
2013-11-22 18:40:00,71.7,66.6,30.16,NE,54,0.0,3.0,84,0.00,,,0.02,Weather View 32 v70,2013-11-22 23:40:00,
2013-11-22 18:50:00,70.9,66.8,30.16,NE,54,0.0,3.0,87,0.00,,,0.02,Weather View 32 v70,2013-11-22 23:50:00,
2013-11-22 19:00:00,70.9,66.5,30.16,NE,54,0.0,2.0,86,0.00,,,0.02,Weather View 32 v70,2013-11-23 00:00:00,
2013-11-22 19:10:00,71.1,66.7,30.16,NE,54,0.0,2.0,86,0.00,,,0.02,Weather View 32 v70,2013-11-23 00:10:00,
2013-11-22 19:20:00,70.8,66.4,30.16,NE,54,0.0,1.0,86,0.00,,,0.02,Weather View 32 v70,2013-11-23 00:20:00,
2013-11-22 19:29:00,70.8,66.4,30.16,NE,54,0.0,1.0,86,0.00,,,0.02,Weather View 32 v70,2013-11-23 00:29:00,
2013-11-22 19:30:00,70.7,66.3,30.16,ENE,63,1.0,2.0,86,0.00,,,0.02,Weather View 32 v70,2013-11-23 00:30:00,
2013-11-22 19:40:00,70.5,66.4,30.16,ENE,63,0.0,2.0,87,0.00,,,0.02,Weather View 32 v70,2013-11-23 00:40:00,
2013-11-22 19:50:00,70.4,66.3,30.16,ENE,63,0.0,2.0,87,0.00,,,0.02,Weather View 32 v70,2013-11-23 00:50:00,
2013-11-22 20:00:00,69.5,65.8,30.16,ENE,63,0.0,2.0,88,0.00,,,0.02,Weather View 32 v70,2013-11-23 01:00:00,
2013-11-22 20:10:00,68.6,65.5,30.16,ENE,63,0.0,2.0,90,0.00,,,0.02,Weather View 32 v70,2013-11-23 01:10:00,
2013-11-22 20:20:00,67.9,65.2,30.16,ENE,63,0.0,2.0,91,0.00,,,0.02,Weather View 32 v70,2013-11-23 01:20:00,
2013-11-22 20:30:00,67.0,64.6,30.16,ENE,63,0.0,2.0,92,0.00,,,0.02,Weather View 32 v70,2013-11-23 01:30:00,
2013-11-22 20:40:00,66.4,64.3,30.16,ENE,63,0.0,1.0,93,0.00,,,0.02,Weather View 32 v70,2013-11-23 01:40:00,
2013-11-22 20:50:00,66.0,64.2,30.16,ENE,63,0.0,1.0,94,0.00,,,0.02,Weather View 32 v70,2013-11-23 01:50:00,
2013-11-22 21:00:00,65.9,64.1,30.15,ENE,63,0.0,1.0,94,0.00,,,0.02,Weather View 32 v70,2013-11-23 02:00:00,
2013-11-22 21:10:00,65.4,63.6,30.15,ENE,63,0.0,1.0,94,0.00,,,0.02,Weather View 32 v70,2013-11-23 02:10:00,
2013-11-22 21:20:00,64.8,63.3,30.15,ENE,63,0.0,1.0,95,0.00,,,0.02,Weather View 32 v70,2013-11-23 02:20:00,
2013-11-22 21:30:00,64.8,63.3,30.15,ENE,63,0.0,0.0,95,0.00,,,0.02,Weather View 32 v70,2013-11-23 02:30:00,
2013-11-22 21:40:00,64.0,62.5,30.15,ENE,63,0.0,0.0,95,0.00,,,0.02,Weather View 32 v70,2013-11-23 02:40:00,
2013-11-22 21:50:00,63.7,62.2,30.15,ENE,63,0.0,0.0,95,0.00,,,0.02,Weather View 32 v70,2013-11-23 02:50:00,
2013-11-22 22:00:00,63.4,61.9,30.15,ENE,63,0.0,0.0,95,0.00,,,0.02,Weather View 32 v70,2013-11-23 03:00:00,
2013-11-22 22:10:00,63.1,61.6,30.15,ENE,63,1.0,1.0,95,0.00,,,0.02,Weather View 32 v70,2013-11-23 03:10:00,
2013-11-22 22:20:00,62.8,61.3,30.15,ENE,63,0.0,2.0,95,0.00,,,0.02,Weather View 32 v70,2013-11-23 03:20:00,
2013-11-22 22:30:00,62.7,61.5,30.15,ENE,63,0.0,2.0,96,0.00,,,0.02,Weather View 32 v70,2013-11-23 03:30:00,
2013-11-22 22:31:00,62.7,61.5,30.15,ENE,63,0.0,2.0,96,0.00,,,0.02,Weather View 32 v70,2013-11-23 03:31:00,
2013-11-22 22:40:00,62.5,61.2,30.15,ENE,63,0.0,2.0,96,0.00,,,0.02,Weather View 32 v70,2013-11-23 03:40:00,
2013-11-22 22:50:00,62.1,60.9,30.14,ENE,63,0.0,2.0,96,0.00,,,0.02,Weather View 32 v70,2013-11-23 03:50:00,
2013-11-22 23:00:00,62.1,60.9,30.14,ENE,63,0.0,2.0,96,0.00,,,0.02,Weather View 32 v70,2013-11-23 04:00:00,
2013-11-22 23:10:00,61.8,60.6,30.14,ENE,63,0.0,2.0,96,0.00,,,0.02,Weather View 32 v70,2013-11-23 04:10:00,
2013-11-22 23:20:00,61.6,60.4,30.13,ENE,63,0.0,0.0,96,0.00,,,0.02,Weather View 32 v70,2013-11-23 04:20:00,
2013-11-22 23:30:00,61.6,60.4,30.13,ENE,63,0.0,0.0,96,0.00,,,0.02,Weather View 32 v70,2013-11-23 04:30:00,
2013-11-22 23:40:00,61.6,60.4,30.13,ENE,63,0.0,0.0,96,0.00,,,0.02,Weather View 32 v70,2013-11-23 04:40:00,
2013-11-22 23:50:00,61.1,59.9,30.12,ENE,63,0.0,0.0,96,0.00,,,0.02,Weather View 32 v70,2013-11-23 04:50:00,